Regional Weather Roundup
Issued by NWS

Home | Current Version | Previous Version | Text Only | Print | Product List | Glossary On
Versions: 1 2 3 4 5 6 7 8 9 10 11 12 13 14 15 16 17 18 19 20 21 22 23 24 25 26 27 28
000
ASUS45 KREV 241210
RWRNV
NEVADA REGIONAL WEATHER ROUNDUP
NATIONAL WEATHER SERVICE RENO NV
500 AM PDT WED MAY 24 2017

NOTE: "FAIR" INDICATES FEW OR NO CLOUDS BELOW 12,000 FEET WITH NO
SIGNIFICANT WEATHER AND/OR OBSTRUCTIONS TO VISIBILITY.

NVZ001-003-004-241300-
WESTERN NEVADA

CITY           SKY/WX    TMP DP  RH WIND       PRES   REMARKS
RENO           PTCLDY    60  39  45 CALM      29.98F
6HR MIN TEMP:  59; 6HR MAX TEMP:  76;

CARSON CITY    FAIR      54  39  58 CALM      30.01F
MINDEN         FAIR      45  39  81 NE6       30.01F
FALLON         CLEAR     59  40  49 S7        29.93S
6HR MIN TEMP:  57; 6HR MAX TEMP:  74;

LOVELOCK       MOCLDY    60  39  45 W3        29.91F
6HR MIN TEMP:  59; 6HR MAX TEMP:  78;

HAWTHORNE      PTCLDY    63  39  42 SE3       29.95S
$$

NVZ002-CAZ072-073-241300-
NORTHERN AND CENTRAL SIERRA

CITY           SKY/WX    TMP DP  RH WIND       PRES   REMARKS
S. LAKE TAHOE  CLEAR     42  37  82 SW3       30.11F
6HR MIN TEMP:  41; 6HR MAX TEMP:  54;

TRUCKEE        CLEAR     36  34  93 CALM      30.10F
SQUAW VLY 8000   N/A     41  34  75 S6          N/A
SUSANVILLE     CLEAR     54  39  58 W8        29.97
MAMMOTH LAKES  FAIR      44  32  63 N5        30.16F
6HR MIN TEMP:  44; 6HR MAX TEMP:  61;

BRIDGEPORT     FAIR      44  31  60 CALM      30.12F
$$

NVZ030-031-036-241300-
NORTHERN NEVADA

CITY           SKY/WX    TMP DP  RH WIND       PRES   REMARKS
ELKO           CLEAR     46  39  76 CALM      29.95F
6HR MIN TEMP:  43; 6HR MAX TEMP:  56;

WINNEMUCCA     CLEAR     49  36  61 S9        29.92F
6HR MIN TEMP:  47; 6HR MAX TEMP:  63;

WENDOVER       CLEAR     57  40  52 NE5       29.86F
$$

NVZ035-037-241300-
CENTRAL NEVADA

CITY           SKY/WX    TMP DP  RH WIND       PRES   REMARKS
ELY            CLEAR     38  26  62 S10       30.05F
6HR MIN TEMP:  38; 6HR MAX TEMP:  48;

EUREKA           N/A     50  25  37 S9        30.02F
6HR MIN TEMP:  47; 6HR MAX TEMP:  54;

$$

NVZ013-014-241300-
SOUTH CENTRAL NEVADA

CITY           SKY/WX    TMP DP  RH WIND       PRES   REMARKS
TONOPAH        CLEAR     57  27  31 N9        30.01F
6HR MIN TEMP:  56; 6HR MAX TEMP:  65;

$$

NVZ017-020-022-241300-
SOUTHERN NEVADA

CITY           SKY/WX    TMP DP  RH WIND       PRES   REMARKS
LAS VEGAS      CLEAR     81  24  12 S8        29.76F
6HR MIN TEMP:  80; 6HR MAX TEMP:  88;

N. LAS VEGAS   CLEAR     73  30  20 N5        29.77F
6HR MIN TEMP:  73; 6HR MAX TEMP:  87;

NELLIS AFB     CLEAR     71  28  20 NE6       29.75F
6HR MIN TEMP:  69; 6HR MAX TEMP:  85;

HENDERSON      CLEAR     79  27  14 SW15      29.82F
6HR MIN TEMP:  76; 6HR MAX TEMP:  83;

MERCURY        CLEAR     70  27  20 N10       29.84F
6HR MIN TEMP:  67; 6HR MAX TEMP:  76;

$$




USA.gov is the U.S. government's official web portal to all federal, state and local government web resources and services.